This is the latest recevied weather packets stored in our database for station/object LA9TLA-1. If no packets are shown the sender has not sent any weather packets the latest 10 day(s).
| Time | Temp. | Humidity | Pressure | Rain* | Wind** | Luminosity | Snow |
|---|---|---|---|---|---|---|---|
| 1788626101 | 13.89° C | 99% | 1001.8 hPa | 2.79 mm | - | - | - |
| 1788624301 | 13.33° C | 99% | 1001.1 hPa | 1.78 mm | - | - | - |
| 1788620700 | 13.89° C | 99% | 999.9 hPa | 0 mm | - | - | - |
| 1788618901 | 13.89° C | 99% | 999 hPa | 1.02 mm | - | - | - |
| 1788617100 | 13.89° C | 99% | 998.3 hPa | 1.02 mm | - | - | - |
| 1788615301 | 13.89° C | 99% | 997.6 hPa | 0.51 mm | - | - | - |
| 1788613501 | 14.44° C | 99% | 997 hPa | 0.51 mm | - | - | - |
| 1788611701 | 13.89° C | 99% | 996.8 hPa | 0 mm | - | - | - |
| 1788609901 | 15.56° C | 99% | 996.4 hPa | 0 mm | - | - | - |
| 1788608101 | 15.56° C | 99% | 995.7 hPa | 0 mm | - | - | - |
| 1788604501 | 15.56° C | 99% | 994.9 hPa | 0 mm | - | - | - |
| 1788602701 | 15.56° C | 99% | 993.9 hPa | 0 mm | - | - | - |
| 1788600902 | 15° C | 99% | 993.5 hPa | 0 mm | - | - | - |
| 1788599101 | 14.44° C | 99% | 992.8 hPa | 0 mm | - | - | - |
| 1788597300 | 15° C | 99% | 992.3 hPa | 0 mm | - | - | - |
| 1788595501 | 14.44° C | 99% | 991.6 hPa | 0.25 mm | - | - | - |
| 1788593701 | 13.33° C | 99% | 991.1 hPa | 0.76 mm | - | - | - |
| 1788590101 | 13.33° C | 99% | 990.1 hPa | 1.78 mm | - | - | - |
| 1788588300 | 13.33° C | 99% | 989.5 hPa | 0.25 mm | - | - | - |
| 1788586501 | 13.33° C | 99% | 989.2 hPa | 0.76 mm | - | - | - |
| 1788564902 | 12.78° C | 99% | 988.6 hPa | 1.27 mm | - | - | - |
| 1788557702 | 12.22° C | 99% | 988.6 hPa | 1.27 mm | - | - | - |
| 1788554100 | 12.22° C | 99% | 988.6 hPa | 0 mm | - | - | - |
| 1788552300 | 12.78° C | 99% | 988.8 hPa | 0 mm | - | - | - |
| 1788550503 | 12.22° C | 99% | 988.7 hPa | 0 mm | - | - | - |
* Rain latest hour (hover to see other rain measurements)
** Current wind speed in m/s (hover to see current wind gust speed)